Regional Weather Roundup
Issued by NWS Cleveland, OH

Home | Current Version | Previous Version | Graphics & Text | Print | Product List | Glossary On
Versions: 1 2 3 4 5 6 7 8 9 10 11 12 13 14 15 16 17 18 19 20 21 22 23 24 25 26 27 28 29 30 31 32 33 34 35 36 37 38 39 40 41 42 43 44 45 46 47 48 49 50
000
ASUS41 KCLE 292100
RWRCLE
OHIO REGIONAL WEATHER ROUNDUP
NATIONAL WEATHER SERVICE WILMINGTON, OH
500 PM EDT FRI APR 29 2016

NOTE: "FAIR" INDICATES FEW OR NO CLOUDS BELOW 12,000 FEET WITH NO
SIGNIFICANT WEATHER AND/OR OBSTRUCTIONS TO VISIBILITY.

OHZ001>008-015>018-024>027-034-035-043-044-292200-
   NORTHWEST OHIO

CITY           SKY/WX    TMP DP  RH WIND       PRES   REMARKS
DEFIANCE       CLOUDY    56  40  55 CALM      30.07S
FINDLAY        CLOUDY    55  41  59 E5        30.05S
TOLEDO EXPRESS CLOUDY    52  40  63 E13       30.07R
TOLEDO EXEC    CLOUDY    50  38  63 NE9       30.10R
LIMA           CLOUDY    52  46  80 NW6       30.06R
$$

OHZ009>014-019>023-028>033-038-089-292200-
   NORTHEAST OHIO

CITY           SKY/WX    TMP DP  RH WIND       PRES   REMARKS
CLE-HOPKINS    CLOUDY    44  40  85 N14       30.11R
CLE-LAKEFRONT  LGT RAIN  46  40  79 NE16      30.07F
CUY CO. ARPT   CLOUDY    46  41  81 NE14      30.06F
LORAIN-ELYRIA  CLOUDY    43  38  82 NE9       30.10R
ASHTABULA      CLOUDY    42  39  89 VRB7      30.07S
AKRON-CANTON   CLOUDY    49  43  80 NW8       30.05R
WOOSTER        NOT AVBL
MANSFIELD      CLOUDY    47  43  86 N8        30.06R
YOUNGSTOWN     LGT RAIN  48  45  89 N10       30.02S FOG
$$

OHZ042-051>053-060>062-070>072-077>081-292200-
  SOUTHWEST OHIO

CITY           SKY/WX    TMP DP  RH WIND       PRES   REMARKS
CINC-COVINGTON CLOUDY    66  47  50 W9        30.02S
CINC-LUNKEN    FAIR      68  49  50 NW10      30.01F
HAMILTON       FAIR      67  49  52 N8        30.03F
DAYTON         NOT AVBL
WRIGHT-PAT AFB NOT AVBL
DAYTON GENERAL FAIR      63  47  55 N8        30.01F
WILMINGTON     FAIR      62  52  69 N9        30.02F
$$

OHZ036-037-039>041-045>050-054>059-063>069-073>076-082>088-292200-
  CENTRAL AND SOUTHEAST OHIO

CITY           SKY/WX    TMP DP  RH WIND       PRES   REMARKS
COLUMBUS       CLOUDY    57  47  69 N12       30.04R
OSU AIRPORT    CLOUDY    58  48  69 VRB5      30.05R
BOLTON FIELD   CLOUDY    55  48  76 NW9       30.06R
RICKENBACK AFB NOT AVBL
NEWARK         CLOUDY    59  47  64 N9        30.04R
MARION         CLOUDY    52  44  74 N9        30.07R
LANCASTER      CLOUDY    61  49  64 NW12      30.04R
ZANESVILLE     CLOUDY    61  49  64 NW10      30.03R
NEW PHILLY     CLOUDY    52  46  80 N9        30.05R
$$




USA.gov is the U.S. government's official web portal to all federal, state and local government web resources and services.